APSTAR 1A

导读

APSTAR 1A(亚太1A)卫星于1996年7月3日,由中国在西昌卫星发射中心用长征三号运载火箭成功发射,定点于东经134度地球静止轨道。卫星由美国休斯公司制造,由香港亚太通信卫星有限公司运营,旨在缓解亚太地区转发器短缺问题,为区域提供广播电视传输与通信服务,覆盖亚洲、欧洲、非洲和澳洲部分区域,服务全球约75%人口。

基本信息
目录编号:
23943
目录名称:
APSTAR 1A
国际标识:
1996-039A
轨道中心:
EARTH
卫星名称:
APSTAR 1A
卫星全名:
--
卫星状态:
在轨 (已飞行10968 天)
发射日期:
1996-07-03 UTC
国别 :
中国 (CN)
星等 :
--
轨道信息
数据来源 国际轨道数据 AOE轨道数据
星历时间 2026-07-14T02:08:39+0800
12小时前
查看轨道信息
2026-07-09T01:00:00+0800
5天前
查看轨道信息
半长轴 42469.836km 42470.207km
偏心率 0.0020375 0.0020526
轨道倾角 12.690° 12.685°
近地点辐角 352.816° 352.409°
升交点赤经 19.833° 19.870°
平近点角 206.449° 204.314°
近地点 36005.166km 36004.895km
远地点 36178.232km 36179.245km
周期 1451.712分钟 1451.731分钟
每日圈数 0.991932 0.991919
详细信息
使用方式:
暂无
2D轨道图
3D轨道图
轨道高度分析图
轨道倾角分析图
轨道综合分析图
查看轨道综合分析图